Year,Month,Day,Hour,Minute,Value (Times are PST for temperature in C)
2010,09,19,10,02,12.90
2010,09,19,10,03,12.90
2010,09,19,10,04,13.00
2010,09,19,10,05,13.00
2010,09,19,10,06,13.10
2010,09,19,10,07,13.10
2010,09,19,10,08,13.10
2010,09,19,10,09,13.10
2010,09,19,10,10,13.10
2010,09,19,10,11,13.10
2010,09,19,10,12,13.10
2010,09,19,10,13,13.10
2010,09,19,10,14,13.10
2010,09,19,10,15,13.10
2010,09,19,10,16,13.10
2010,09,19,10,17,13.10
2010,09,19,10,18,13.10
2010,09,19,10,19,13.10
2010,09,19,10,20,13.10
2010,09,19,10,21,13.10
2010,09,19,11,11,13.20
2010,09,19,11,12,13.20
2010,09,19,11,13,13.30
2010,09,19,11,14,13.30
2010,09,19,11,15,13.30
2010,09,19,11,16,13.40
2010,09,19,11,17,13.40
2010,09,19,11,18,13.50
2010,09,19,11,19,13.60
2010,09,19,11,20,13.60
2010,09,19,11,21,13.70
2010,09,19,11,22,13.80
2010,09,19,11,23,13.80
2010,09,19,11,24,13.70
2010,09,19,11,25,13.80
2010,09,19,11,26,13.80
2010,09,19,11,27,13.80
2010,09,19,11,28,13.80
2010,09,19,11,29,13.50
2010,09,19,11,30,13.30
2010,09,19,11,31,13.10
2010,09,19,11,32,13.00
2010,09,19,11,33,12.90
2010,09,19,11,34,12.90
2010,09,19,11,35,12.80
2010,09,19,11,36,12.80
2010,09,19,11,37,12.80
2010,09,19,11,38,12.80
2010,09,19,11,39,12.80
2010,09,19,11,40,12.80
2010,09,19,11,41,12.80
2010,09,19,11,42,12.90
2010,09,19,11,43,12.90
2010,09,19,11,44,12.90
2010,09,19,11,45,13.00
2010,09,19,11,46,13.10
2010,09,19,11,47,13.20
2010,09,19,11,48,13.30
2010,09,19,11,49,13.40
2010,09,19,11,50,13.50
2010,09,19,11,51,13.50
2010,09,19,11,52,13.60
2010,09,19,11,53,13.60
2010,09,19,11,54,13.50
2010,09,19,11,55,13.50
2010,09,19,11,56,13.40
2010,09,19,11,57,13.40
2010,09,19,11,58,13.40
2010,09,19,11,59,13.40
2010,09,19,12,00,13.40
2010,09,19,12,01,13.50
2010,09,19,12,02,13.60
2010,09,19,12,03,13.60
2010,09,19,12,04,13.60
2010,09,19,12,05,13.70
2010,09,19,12,06,13.70
2010,09,19,12,07,13.80
2010,09,19,12,08,13.80
2010,09,19,12,09,13.90
2010,09,19,12,10,13.90
2010,09,19,12,11,14.00
2010,09,19,12,12,14.10
2010,09,19,12,13,14.00
2010,09,19,12,14,13.90
2010,09,19,12,15,13.80
2010,09,19,12,16,13.80
2010,09,19,12,17,13.80
2010,09,19,12,18,13.80
2010,09,19,12,19,13.90
2010,09,19,12,20,13.90
2010,09,19,12,21,13.90
2010,09,19,12,22,13.90
2010,09,19,12,23,13.90
2010,09,19,12,24,13.90
2010,09,19,12,25,13.90
2010,09,19,12,26,13.90
2010,09,19,12,27,13.90
2010,09,19,12,28,13.90
2010,09,19,12,29,13.90
2010,09,19,12,30,13.90
2010,09,19,12,31,13.90
2010,09,19,12,32,14.00
2010,09,19,12,33,14.00
2010,09,19,12,34,14.00
2010,09,19,12,35,14.10
2010,09,19,12,36,14.10
2010,09,19,12,37,14.10
2010,09,19,12,38,14.10
2010,09,19,12,39,14.10
2010,09,19,12,40,14.10
2010,09,19,12,41,14.20
2010,09,19,12,42,14.30
2010,09,19,12,43,14.30
2010,09,19,12,44,14.30
2010,09,19,12,45,14.30
2010,09,19,12,46,14.30
2010,09,19,12,47,14.30
2010,09,19,12,48,14.30
2010,09,19,12,49,14.30
2010,09,19,12,50,14.30
2010,09,19,12,51,14.30
2010,09,19,12,52,14.40
2010,09,19,12,53,14.60
2010,09,19,12,54,14.60
2010,09,19,12,55,14.60
2010,09,19,12,56,14.60
2010,09,19,12,57,14.60
2010,09,19,12,58,14.70
2010,09,19,12,59,14.70
2010,09,19,13,00,14.80
2010,09,19,13,01,14.90
2010,09,19,13,02,15.00
2010,09,19,13,03,15.00
2010,09,19,13,04,15.00
2010,09,19,13,05,15.00
2010,09,19,13,06,15.00
2010,09,19,13,07,15.00
2010,09,19,13,08,15.00
2010,09,19,13,09,15.00
2010,09,19,13,10,15.10
2010,09,19,13,11,15.20
2010,09,19,13,12,15.30
2010,09,19,13,13,15.30
2010,09,19,13,14,15.30
2010,09,19,13,15,15.40
2010,09,19,13,16,15.40
2010,09,19,13,17,15.50
2010,09,19,13,18,15.50
2010,09,19,13,19,15.60
2010,09,19,13,20,15.60
2010,09,19,13,21,15.70
2010,09,19,13,22,15.70
2010,09,19,13,23,15.80
2010,09,19,13,24,15.80
2010,09,19,13,25,15.90
2010,09,19,13,26,15.90
2010,09,19,13,27,15.90
2010,09,19,13,28,15.90
2010,09,19,13,29,15.90
2010,09,19,13,30,15.80
2010,09,19,13,31,15.80
2010,09,19,13,32,15.80
2010,09,19,13,33,15.80
2010,09,19,13,34,15.80
2010,09,19,13,35,15.80
2010,09,19,13,36,15.80
2010,09,19,13,37,15.80
2010,09,19,13,38,15.80
2010,09,19,13,39,15.80
2010,09,19,13,40,15.90
2010,09,19,13,41,16.20
2010,09,19,13,42,16.20
2010,09,19,13,43,16.10
2010,09,19,13,44,16.10
2010,09,19,13,45,16.10
2010,09,19,13,46,16.10
2010,09,19,13,47,16.00
2010,09,19,13,48,16.00
2010,09,19,13,49,16.00
2010,09,19,13,50,16.00
2010,09,19,13,51,16.00
2010,09,19,13,52,16.00
2010,09,19,13,53,16.10
2010,09,19,13,54,16.10
2010,09,19,13,55,16.20
2010,09,19,13,56,16.20
2010,09,19,13,57,16.30
2010,09,19,13,58,16.30
2010,09,19,13,59,16.30
2010,09,19,14,00,16.30
2010,09,19,14,01,16.30
2010,09,19,14,02,16.20
2010,09,19,14,03,16.20
2010,09,19,14,04,16.10
2010,09,19,14,05,16.10
2010,09,19,14,06,16.00
2010,09,19,14,07,16.00
2010,09,19,14,08,15.90
2010,09,19,14,09,15.90
2010,09,19,14,10,15.80
2010,09,19,14,11,15.80
2010,09,19,14,12,15.80
2010,09,19,14,13,15.80
2010,09,19,14,14,15.80
2010,09,19,14,15,15.80
2010,09,19,14,16,15.80
2010,09,19,14,17,15.80
2010,09,19,14,18,15.90
2010,09,19,14,19,15.90
2010,09,19,14,20,15.90
2010,09,19,14,21,16.00
2010,09,19,14,22,16.10
2010,09,19,14,23,16.20
2010,09,19,14,24,16.30
2010,09,19,14,25,16.40
2010,09,19,14,26,16.40
2010,09,19,14,27,16.50
2010,09,19,14,28,16.50
2010,09,19,14,29,16.60
2010,09,19,14,30,16.60
2010,09,19,14,31,16.60
2010,09,19,14,32,16.60
2010,09,19,14,33,16.70
2010,09,19,14,34,16.80
2010,09,19,14,35,16.90
2010,09,19,14,36,17.00
2010,09,19,14,37,17.20
2010,09,19,14,38,17.30
2010,09,19,14,39,17.50
2010,09,19,14,40,17.70
2010,09,19,14,41,17.80
2010,09,19,14,42,17.80
2010,09,19,14,43,17.80
2010,09,19,14,44,17.90
2010,09,19,14,45,17.90
2010,09,19,14,46,18.00
2010,09,19,14,47,18.10
2010,09,19,14,48,18.10
2010,09,19,14,49,18.10
2010,09,19,14,50,18.10
2010,09,19,14,51,18.10
2010,09,19,14,52,18.00
2010,09,19,14,53,18.00
2010,09,19,14,54,18.00
2010,09,19,14,55,17.90
2010,09,19,14,56,17.90
2010,09,19,14,57,17.80
2010,09,19,14,58,17.80
2010,09,19,14,59,17.70
2010,09,19,15,00,17.70
2010,09,19,15,01,17.70
2010,09,19,15,02,17.60
2010,09,19,15,03,17.50
2010,09,19,15,04,17.40
2010,09,19,15,05,17.30
2010,09,19,15,06,17.20
2010,09,19,15,07,17.10
2010,09,19,15,08,16.90
2010,09,19,15,09,16.90
2010,09,19,15,10,16.80
2010,09,19,15,11,16.80
2010,09,19,15,12,16.80
2010,09,19,15,13,16.70
2010,09,19,15,14,16.70
2010,09,19,15,15,16.70
2010,09,19,15,16,16.70
2010,09,19,15,17,16.70
2010,09,19,15,18,16.70
2010,09,19,15,19,16.80
2010,09,19,15,20,16.80
2010,09,19,15,21,16.80
2010,09,19,15,22,16.80
2010,09,19,15,23,16.90
2010,09,19,15,24,17.00
2010,09,19,15,25,17.00
2010,09,19,15,26,17.00
2010,09,19,15,27,16.90
2010,09,19,15,28,17.00
2010,09,19,15,29,17.00
2010,09,19,15,30,17.10
2010,09,19,15,31,17.10
2010,09,19,15,32,17.10
2010,09,19,15,33,17.10
2010,09,19,15,34,17.20
2010,09,19,15,35,17.30
2010,09,19,15,36,17.40
2010,09,19,15,37,17.50
2010,09,19,15,38,17.60
2010,09,19,15,39,17.70
2010,09,19,15,40,17.80
2010,09,19,15,41,17.80
2010,09,19,15,42,17.90
2010,09,19,15,43,18.00
2010,09,19,15,44,18.00
2010,09,19,15,45,18.20
2010,09,19,15,46,18.30
2010,09,19,15,47,18.40
2010,09,19,15,48,18.50
2010,09,19,15,49,18.60
2010,09,19,15,50,18.80
2010,09,19,15,51,18.80
2010,09,19,15,52,18.80
2010,09,19,15,53,18.90
2010,09,19,15,54,18.90
2010,09,19,15,55,19.00
2010,09,19,15,56,19.10
2010,09,19,15,57,19.10
2010,09,19,15,58,19.10
2010,09,19,15,59,19.10
2010,09,19,16,00,19.20
2010,09,19,16,01,19.20
2010,09,19,16,02,19.20
2010,09,19,16,03,19.20
2010,09,19,16,04,19.20
2010,09,19,16,05,19.20
2010,09,19,16,06,19.20
2010,09,19,16,07,19.10
2010,09,19,16,08,19.00
2010,09,19,16,09,18.90
2010,09,19,16,10,18.80
2010,09,19,16,11,18.80
2010,09,19,16,12,18.70
2010,09,19,16,13,18.70
2010,09,19,16,14,18.60
2010,09,19,16,15,18.60
2010,09,19,16,16,18.50
2010,09,19,16,17,18.50
2010,09,19,16,18,18.40
2010,09,19,16,19,18.40
2010,09,19,16,20,18.40
2010,09,19,16,21,18.40
2010,09,19,16,22,18.40
2010,09,19,16,23,18.40
2010,09,19,16,24,18.40
2010,09,19,16,25,18.40
2010,09,19,16,26,18.50
2010,09,19,16,27,18.50
2010,09,19,16,28,18.50
2010,09,19,16,29,18.60
2010,09,19,16,30,18.60
2010,09,19,16,31,18.70
2010,09,19,16,32,18.70
2010,09,19,16,33,18.60
2010,09,19,16,34,18.60
2010,09,19,16,35,18.50
2010,09,19,16,36,18.50
2010,09,19,16,37,18.40
2010,09,19,16,38,18.40
2010,09,19,16,39,18.30
2010,09,19,16,40,18.30
2010,09,19,16,41,18.20
2010,09,19,16,42,18.20
2010,09,19,16,43,18.20
2010,09,19,16,44,18.10
2010,09,19,16,45,18.10
2010,09,19,16,46,18.00
2010,09,19,16,47,18.00
2010,09,19,16,48,17.90
2010,09,19,16,49,17.90
2010,09,19,16,50,17.90
2010,09,19,16,51,17.90
2010,09,19,16,52,17.90
2010,09,19,16,53,17.90
2010,09,19,16,54,17.90
2010,09,19,16,55,17.90
2010,09,19,16,56,17.90
2010,09,19,16,57,17.90
2010,09,19,16,58,17.90
